Location: UBC Liquid-Mirror Observatory
(49.2876°N, 122.5728°W)
Time: 15:50:47
(UTC-07:00)

Daily predictions for brighter satellites

Satellite Brightness Start Highest point End
(mag) Time Altitude Azimuth Time Altitude Azimuth Time Altitude Azimuth
USA 234 4.2 20:31:17 10° ENE 20:37:27 46° N 20:43:36 10° WNW
CZ-2D R/B 3.8 20:35:28 10° S 20:39:13 61° W 20:43:01 10° NNW
Cosmos 2184 Rocket 4.0 20:33:31 10° S 20:39:41 89° ESE 20:45:54 10° N
Cosmos 2360 Rocket 2.3 20:35:47 10° SSW 20:41:25 84° WNW 20:47:06 10° NNE
Cosmos 1470 Rocket 4.3 20:43:08 10° N 20:47:11 34° ENE 20:51:14 10° SE
Cosmos 2333 Rocket 2.9 20:43:05 10° SSE 20:48:01 32° ESE 20:52:57 10° NE
Cosmos 1455 2.9 20:46:52 10° SSE 20:50:20 33° E 20:53:50 10° NNE
Spot 2 Rocket 3.6 20:46:16 10° SSE 20:51:18 64° ENE 20:56:21 10° N
Cosmos 1892 2.7 20:47:54 10° N 20:51:50 74° E 20:55:42 10° SSE
COSMOS 2428 2.8 20:47:31 10° S 20:53:06 56° ESE 20:58:42 10° NE
SL-16 R/B 4.1 20:48:56 10° WSW 20:54:07 36° NW 20:59:21 10° NNE
NOSS 2-1 (C) 3.5 20:51:49 10° SSW 20:55:16 43° ESE 20:59:12 10° NE
NOSS 2-1 (D) 3.5 20:52:45 10° SSW 20:56:14 45° ESE 21:00:12 10° NE
Cosmos 2333 4.2 20:50:44 10° SSW 20:56:17 61° ESE 21:01:49 10° NE
ERS-2 3.1 20:52:46 10° S 20:56:20 48° W 20:59:55 10° NNW
Cosmos 2341 Rocket 4.3 20:50:20 10° SSE 20:56:26 50° E 21:02:30 10° NNE
Cosmos 1408 3.6 20:53:20 10° N 20:56:33 28° ENE 20:59:42 10° SE
Cosmos 1844 Rocket 3.1 20:50:58 10° NNW 20:56:37 66° WSW 21:02:13 10° SSE
Cosmos 1844 3.9 20:51:30 10° NNW 20:57:13 81° WSW 21:02:57 10° SSE
SJ-11-01 4.3 20:52:44 10° SSE 20:57:23 77° ENE 21:02:05 10° N
ATLAS 2AS CENTAUR R/B 3.1 20:50:00 10° NW 20:58:06 85° NE 21:05:34 10° SE
USA 186 2.4 21:00:23 10° S 21:02:30 38° W 21:04:41 10° NNW
Terra 4.1 21:03:26 10° ENE 21:03:54 10° NE 21:04:22 10° NE
ATLAS CENTAUR R/B 2.3 21:03:21 10° SSE 21:06:13 22° ESE 21:09:12 10° ENE
Lacrosse 5 3.3 21:01:43 10° WNW 21:06:22 34° N 21:11:01 10° ENE
Meteor 2-21 4.5 21:01:08 10° S 21:07:17 84° E 21:13:31 10° N
Genesis I 3.3 21:03:11 10° NW 21:07:17 80° NE 21:10:55 13° SE
NOSS 7 (D) 4.4 21:05:30 10° SW 21:08:48 77° NW 21:12:02 10° NE
Cosmos 2237 Rocket 3.0 21:04:54 10° SSE 21:09:35 28° ESE 21:14:18 10° NE
CZ-3B R/B 1.4 21:08:04 10° WNW 21:09:45 68° SSW 21:10:37 21° SE
Cosmos 1666 Rocket 4.0 21:05:34 10° NNW 21:10:02 67° W 21:14:27 10° S
Cosmos 2219 Rocket 2.3 21:04:45 10° S 21:10:15 53° ESE 21:15:44 10° NE
Cosmos 2322 Rocket 4.4 21:06:27 10° WSW 21:11:24 30° NW 21:16:22 10° NNE
SPOT 5 4.3 21:10:05 12° ESE 21:12:58 20° ENE 21:16:10 10° NNE
Cosmos 2278 Rocket 2.3 21:08:29 10° NNW 21:14:10 67° ENE 21:19:15 13° SE
Resurs 1-3 4.2 21:11:27 10° S 21:15:47 59° WSW 21:20:09 10° NNW
Cosmos 1933 Rocket 3.7 21:11:45 10° N 21:16:06 55° ENE 21:20:08 11° SSE
YAOGAN 6 3.8 21:13:35 10° S 21:17:00 42° W 21:20:31 10° NNW
MetOp-A 4.4 21:14:51 12° SE 21:19:40 51° ENE 21:24:51 10° N
SAR-Lupe-3 4.5 21:16:24 10° NNE 21:20:01 76° ESE 21:23:36 10° S
NOSS 0 Rocket 4.3 21:15:47 10° S 21:21:33 43° ESE 21:27:21 10° NE
H-2A R/B 2.5 21:19:45 15° SE 21:23:38 41° ENE 21:28:17 10° N
NOAA 11 4.3 21:18:34 10° SSE 21:24:04 83° WSW 21:29:38 10° NNW
ATLAS 5 CENTAUR R/B 4.1 21:20:17 10° NW 21:24:26 22° NNE 21:28:57 10° ENE
Sich 1 4.3 21:20:44 10° NNW 21:24:47 42° W 21:28:48 10° SSW
Cosmos 407 Rocket 4.2 21:20:03 10° N 21:24:49 37° ENE 21:28:14 17° ESE
NOSS 2-1 (E) 3.2 21:22:52 10° SW 21:26:33 77° SE 21:30:53 10° NE
Cosmos 1340 3.7 21:23:19 10° SSW 21:27:00 49° WNW 21:30:43 10° N
NOSS 3-4 (A) 4.1 21:21:34 10° NW 21:28:19 57° NE 21:34:10 16° ESE
NOSS 3-4 (C) 4.1 21:21:40 10° NW 21:28:24 56° NE 21:34:16 16° ESE
Cosmos 220 Rocket 4.3 21:24:12 10° NNW 21:28:34 68° WSW 21:32:38 11° SSE
SL-8 Rocket 4.1 21:22:31 10° S 21:28:40 57° E 21:34:49 10° NNE
Cosmos 1151 Rocket 3.0 21:28:03 10° S 21:32:14 58° E 21:36:27 10° NNE
ERS-1 Rocket 3.4 21:30:17 17° SE 21:33:50 47° ENE 21:38:39 10° N
Cosmos 1825 2.1 21:31:40 10° N 21:35:29 70° E 21:38:09 18° SSE
Cosmos 1869 Rocket 4.5 21:34:01 10° N 21:37:59 31° ENE 21:39:55 22° ESE
NOSS 3-3 (A) 3.9 21:32:43 10° SSW 21:38:46 70° SE 21:45:31 10° NE
NOSS 3-3 (C) 3.9 21:32:50 10° SSW 21:38:53 69° SE 21:45:36 10° NE
USA 267 4.0 21:38:00 10° ENE 21:43:22 26° SE 21:48:42 10° S
Cosmos 1869 3.5 21:45:43 19° SSE 21:48:20 52° E 21:52:16 10° NNE
Helios 1B rocket 3.8 21:47:40 10° NE 21:50:44 20° E 21:50:44 20° E
Cosmos 405 3.3 21:48:10 10° N 21:51:37 48° ENE 21:52:43 34° SE
Cosmos 2228 Rocket 3.1 21:48:28 10° S 21:52:51 83° W 21:57:18 10° N
Cosmos 2098 Rocket 3.0 21:52:10 17° S 21:55:37 57° E 21:59:22 10° NNE
Cosmos 2056 Rocket 4.0 21:53:18 19° SSE 21:56:36 39° ESE 22:01:36 10° NE
SL-8 R/B 4.5 21:53:17 10° SSW 21:57:23 29° SSE 21:57:47 29° SE
Cosmos 1515 Rocket 3.8 21:53:13 10° SSW 21:57:41 75° W 22:02:10 10° N
SL-16 R/B 3.0 21:56:50 25° SE 21:58:17 28° ESE 22:03:04 10° NE
Cosmos 864 Rocket 4.4 21:54:58 10° S 22:01:03 71° E 22:07:11 10° NNE
USA 245 2.4 22:03:16 56° ENE 22:03:16 56° ENE 22:05:34 10° N
Helios 1A 3.0 22:02:58 33° SE 22:04:42 62° ENE 22:08:52 10° N
BREEZE-M DEB (TANK) 4.5 22:08:16 10° W 22:10:04 14° SW 22:10:38 13° SW
GEOS 3 Rocket 3.8 22:04:58 10° NE 22:10:09 47° ESE 22:15:13 10° SSW
Cosmos 1943 Rocket 4.1 22:06:24 10° N 22:10:15 19° NE 22:13:38 11° ENE
ARGOS 3.4 22:07:34 17° S 22:11:40 66° WSW 22:17:01 10° NNW
SL-08 RB Rocket 3.7 22:09:12 25° S 22:11:45 77° WSW 22:16:16 10° NNW
Cosmos 1624 Rocket 4.0 22:10:32 21° S 22:13:54 55° ESE 22:18:59 10° NNE
Cosmos 1190 Rocket 4.0 22:09:05 10° NNW 22:14:25 89° ENE 22:16:58 32° SSE
Resurs 01 Rocket 4.2 22:11:29 10° SW 22:14:30 18° W 22:17:32 10° NW
MetOp-B 4.4 22:14:35 20° S 22:18:19 65° WSW 22:23:39 10° NNW
USA 234 3.6 22:15:12 19° E 22:19:56 63° NNE 22:26:24 10° WNW
CZ-2C R/B 4.1 22:20:42 24° E 22:21:53 27° ENE 22:25:54 10° N
Landsat 7 4.0 22:21:25 39° SE 22:22:58 58° ENE 22:27:39 10° N
Cosmos 2344 4.2 22:20:44 28° SE 22:23:15 34° ESE 22:30:28 10° NE
Cosmos 1441 Rocket 3.2 22:24:05 53° E 22:24:08 53° E 22:27:48 10° NNE
Cosmos 2297 3.6 22:18:38 10° NNW 22:24:20 90° ENE 22:26:51 35° SSE
Cosmos 1140 Rocket 3.6 22:19:33 10° NNW 22:24:43 59° ENE 22:26:27 39° ESE
Cosmos 1980 3.8 22:19:38 10° SSW 22:25:20 80° WNW 22:31:04 10° NNE
Cosmos 1954 Rocket 4.1 22:23:02 10° NNW 22:28:16 64° ENE 22:29:59 41° SE
Cosmos 1862 3.3 22:24:42 10° N 22:28:47 85° W 22:29:49 50° S
Cosmos 1727 Rocket 4.2 22:24:15 10° NNW 22:30:24 70° W 22:34:28 22° S
Cosmos 2333 Rocket 3.1 22:26:35 10° SW 22:32:05 50° NW 22:37:35 10° NNE
Cosmos 2369 Rocket 3.4 22:29:36 10° NNW 22:34:41 31° NE 22:37:01 23° E
IGS 5A 3.7 22:34:24 49° E 22:34:56 53° ENE 22:39:01 10° N
DMSP B5D2-2 4.0 22:32:36 10° NNE 22:37:51 70° ESE 22:39:54 38° S
Meteor 2-10 Rocket 3.9 22:33:22 15° SSW 22:38:08 77° WNW 22:44:00 10° N
Spot 1 4.3 22:37:02 45° SSE 22:38:33 82° ENE 22:43:20 10° NNW
Cosmos 1821 Rocket 4.2 22:37:42 37° SE 22:39:54 54° E 22:46:02 10° NNE
Terra 2.0 22:39:40 47° ESE 22:40:40 58° ENE 22:45:22 10° N
Cosmos 1437 Rocket 3.4 22:37:59 10° N 22:41:29 41° ENE 22:41:29 41° ENE
Meteor 1-29 4.1 22:38:47 10° NNE 22:40:56 32° NE 22:40:56 32° NE
ATLAS CENTAUR R/B 2.2 22:41:18 10° WSW 22:44:53 46° NW 22:48:43 10° NNE
ATLAS 2AS CENTAUR R/B 4.4 22:41:55 10° NW 22:48:17 28° WSW 22:53:12 14° SSW
Lacrosse 5 2.7 22:45:20 10° NW 22:50:14 46° NNE 22:52:35 27° ENE
H-2A R/B 4.5 22:49:20 12° ENE 22:50:14 12° NE 22:52:00 10° NNE
SPOT 5 3.1 22:49:19 41° SSW 22:50:42 59° WSW 22:55:09 10° NNW
Cosmos 405 Rocket 2.7 22:51:18 74° SW 22:51:35 81° WNW 22:55:32 10° N
Cosmos 2123 Rocket 4.2 22:45:31 10° N 22:51:44 56° ENE 22:53:32 42° SE
Cosmos 2237 Rocket 2.8 22:47:48 10° SW 22:53:19 55° WNW 22:58:53 10° NNE
Cosmos 2219 Rocket 3.9 22:49:24 10° WSW 22:54:28 33° NW 22:59:33 10° NNE
SPOT 1/Viking Rocket 3.8 22:52:36 38° SSW 22:54:31 63° WSW 22:59:44 10° NNW
Cosmos 2278 Rocket 4.0 22:53:24 10° NW 22:57:45 23° WSW 23:01:07 14° SW
CZ-2C R/B 3.7 22:54:09 10° NNE 22:58:19 29° E 22:58:19 29° E
Cosmos 1420 Rocket 4.3 23:02:37 47° E 23:02:37 47° E 23:07:30 10° NNE
H-2A R/B 3.5 23:00:22 18° SW 23:03:11 30° W 23:07:34 10° NNW
Meteor 1-20 Rocket 4.3 23:00:55 10° N 23:06:18 57° ENE 23:07:07 51° ESE
CZ-4C R/B 3.4 23:11:58 26° E 23:11:58 26° E 23:15:16 10° NE
ATLAS 5 CENTAUR R/B 3.0 23:04:53 10° NW 23:10:24 48° NE 23:12:44 33° E
Cosmos 1535 Rocket 4.4 23:08:51 48° SSE 23:10:41 75° E 23:17:04 10° NNE
Cosmos 1933 3.4 23:11:42 72° WNW 23:11:42 72° WNW 23:15:47 10° N
Cosmos 1707 Rocket 3.9 23:11:14 50° WSW 23:12:01 59° WNW 23:16:20 10° N
YAOGAN 11 4.0 23:12:07 78° WSW 23:12:12 79° WSW 23:16:32 10° NNW
BREEZE M DEB (TANK) 3.5 22:59:09 10° WSW 23:12:53 89° SSE 23:14:49 38° E
Cosmos 614 Rocket 4.3 23:10:31 10° NNW 23:15:38 56° WSW 23:16:34 48° SW
Cosmos 1241 Rocket 4.4 23:09:33 10° NW 23:15:53 88° WSW 23:17:25 55° SSE
NOSS 3-4 (A) 4.4 23:12:38 10° NW 23:19:15 46° WSW 23:21:37 35° SSW
NOSS 3-4 (C) 4.4 23:12:44 10° NW 23:19:22 46° WSW 23:21:43 36° SSW
Helios 1B rocket 3.4 23:22:21 10° N 23:26:18 44° WNW 23:27:05 39° W
USA 267 3.1 23:20:29 10° ENE 23:27:03 78° SE 23:33:36 10° SW
CARTOSAT-1 4.3 23:29:05 44° WSW 23:29:13 44° W 23:33:22 10° NNW
Cosmos 1733 Rocket 3.2 23:24:53 10° NNW 23:29:08 66° W 23:29:08 66° W
Cosmos 1605 Rocket 4.0 23:29:05 57° SE 23:30:00 64° E 23:36:20 10° NNE
Cosmos 1782 4.3 23:40:25 30° NE 23:40:25 30° NE 23:42:40 10° NNE
Cosmos 1452 Rocket 3.5 23:38:48 64° SW 23:39:32 77° WNW 23:44:50 10° NNE
SL-16 R/B 2.8 23:38:36 23° SW 23:42:06 55° NW 23:47:41 10° NNE
Cosmos 2242 Rocket 3.8 23:43:15 65° NW 23:43:15 65° NW 23:47:15 10° N
Cosmos 1633 4.0 23:39:19 10° NNW 23:41:39 36° NW 23:41:39 36° NW
Cosmos 1447 Rocket 4.3 23:37:46 10° N 23:43:56 72° E 23:44:40 65° SE
Meteor 1-14 Rocket 4.3 23:41:09 10° NNW 23:46:38 63° W 23:47:14 59° SW
Meteor 1-4 Rocket 4.2 23:44:06 10° NNW 23:46:11 32° NNW 23:46:11 32° NNW
Cosmos 1782 Rocket 4.3 23:44:25 10° N 23:48:01 46° NE 23:48:01 46° NE
Mayak 0.9 23:49:46 10° NE 23:51:15 17° NE 23:51:15 17° NE
